owner,sensor,date,latitude,longitude,vertical_datum,sea_water_temperature,qcFlag 
NERRS,ioos:station:NOAA.NERRS:gndblwq:1,2016-07-07T14:45:00Z,30.3571,-88.4629,0.0,30.0,2 
NERRS,ioos:station:NOAA.NERRS:gndblwq:1,2016-07-07T16:30:00Z,30.3571,-88.4629,0.0,30.7,2 
NERRS,ioos:station:NOAA.NERRS:gndblwq:1,2016-07-07T17:30:00Z,30.3571,-88.4629,0.0,31.8,2 
NERRS,ioos:station:NOAA.NERRS:gndblwq:1,2016-07-07T18:30:00Z,30.3571,-88.4629,0.0,32.2,2 
NERRS,ioos:station:NOAA.NERRS:gndblwq:1,2016-07-07T18:45:00Z,30.3571,-88.4629,0.0,32.7,2 
NERRS,ioos:station:NOAA.NERRS:gndblwq:1,2016-07-07T20:30:00Z,30.3571,-88.4629,0.0,33.5,2 
NERRS,ioos:station:NOAA.NERRS:gndblwq:1,2016-07-07T21:45:00Z,30.3571,-88.4629,0.0,33.3,2 
NERRS,ioos:station:NOAA.NERRS:gndblwq:1,2016-07-07T22:45:00Z,30.3571,-88.4629,0.0,33.2,2 
NERRS,ioos:station:NOAA.NERRS:gndblwq:1,2016-07-07T23:45:00Z,30.3571,-88.4629,0.0,33.1,2 
NERRS,ioos:station:NOAA.NERRS:gndblwq:1,2016-07-08T00:15:00Z,30.3571,-88.4629,0.0,32.7,2 
NERRS,ioos:station:NOAA.NERRS:gndblwq:1,2016-07-08T11:45:00Z,30.3571,-88.4629,0.0,30.3,2 
NERRS,ioos:station:NOAA.NERRS:gndblwq:1,2016-07-08T12:30:00Z,30.3571,-88.4629,0.0,30.3,2 
NERRS,ioos:station:NOAA.NERRS:gndblwq:1,2016-07-08T13:45:00Z,30.3571,-88.4629,0.0,30.7,2 
NERRS,ioos:station:NOAA.NERRS:gndblwq:1,2016-07-08T14:45:00Z,30.3571,-88.4629,0.0,31.0,2 
NERRS,ioos:station:NOAA.NERRS:gndblwq:1,2016-07-08T15:45:00Z,30.3571,-88.4629,0.0,31.1,2 
NERRS,ioos:station:NOAA.NERRS:gndblwq:1,2016-07-08T16:45:00Z,30.3571,-88.4629,0.0,31.7,2 
NERRS,ioos:station:NOAA.NERRS:gndblwq:1,2016-07-08T17:45:00Z,30.3571,-88.4629,0.0,31.1,2 
NERRS,ioos:station:NOAA.NERRS:gndblwq:1,2016-07-08T18:45:00Z,30.3571,-88.4629,0.0,31.1,2 
NERRS,ioos:station:NOAA.NERRS:gndblwq:1,2016-07-08T19:15:00Z,30.3571,-88.4629,0.0,31.0,2 
NERRS,ioos:station:NOAA.NERRS:gndblwq:1,2016-07-08T19:45:00Z,30.3571,-88.4629,0.0,30.9,2 
NERRS,ioos:station:NOAA.NERRS:gndblwq:1,2016-07-13T21:45:00Z,30.3571,-88.4629,0.0,31.6,2 
NERRS,ioos:station:NOAA.NERRS:gndblwq:1,2016-07-13T22:45:00Z,30.3571,-88.4629,0.0,31.4,2 
NERRS,ioos:station:NOAA.NERRS:gndblwq:1,2016-07-13T23:45:00Z,30.3571,-88.4629,0.0,31.1,2 
NERRS,ioos:station:NOAA.NERRS:gndblwq:1,2016-07-14T00:45:00Z,30.3571,-88.4629,0.0,31.2,2 
NERRS,ioos:station:NOAA.NERRS:gndblwq:1,2016-07-14T01:45:00Z,30.3571,-88.4629,0.0,31.3,2 
NERRS,ioos:station:NOAA.NERRS:gndblwq:1,2016-07-14T02:45:00Z,30.3571,-88.4629,0.0,30.8,2 
NERRS,ioos:station:NOAA.NERRS:gndblwq:1,2016-07-14T03:00:00Z,30.3571,-88.4629,0.0,30.8,2 
NERRS,ioos:station:NOAA.NERRS:gndblwq:1,2016-07-14T11:45:00Z,30.3571,-88.4629,0.0,30.1,2 
NERRS,ioos:station:NOAA.NERRS:gndblwq:1,2016-07-14T12:45:00Z,30.3571,-88.4629,0.0,30.4,2 
NERRS,ioos:station:NOAA.NERRS:gndblwq:1,2016-07-14T13:45:00Z,30.3571,-88.4629,0.0,30.5,2 
NERRS,ioos:station:NOAA.NERRS:gndblwq:1,2016-07-14T14:45:00Z,30.3571,-88.4629,0.0,30.5,2 
NERRS,ioos:station:NOAA.NERRS:gndblwq:1,2016-07-14T15:45:00Z,30.3571,-88.4629,0.0,31.6,2 
NERRS,ioos:station:NOAA.NERRS:gndblwq:1,2016-07-14T16:45:00Z,30.3571,-88.4629,0.0,31.6,2 
NERRS,ioos:station:NOAA.NERRS:gndblwq:1,2016-07-14T17:45:00Z,30.3571,-88.4629,0.0,32.3,2 
NERRS,ioos:station:NOAA.NERRS:gndblwq:1,2016-07-14T18:45:00Z,30.3571,-88.4629,0.0,32.8,2 
NERRS,ioos:station:NOAA.NERRS:gndblwq:1,2016-07-14T19:45:00Z,30.3571,-88.4629,0.0,32.3,2 
NERRS,ioos:station:NOAA.NERRS:gndblwq:1,2016-07-14T20:45:00Z,30.3571,-88.4629,0.0,32.5,2 
NERRS,ioos:station:NOAA.NERRS:gndblwq:1,2016-07-14T21:45:00Z,30.3571,-88.4629,0.0,32.5,2 
NERRS,ioos:station:NOAA.NERRS:gndblwq:1,2016-07-14T22:45:00Z,30.3571,-88.4629,0.0,32.2,2 
NERRS,ioos:station:NOAA.NERRS:gndblwq:1,2016-07-14T23:45:00Z,30.3571,-88.4629,0.0,32.1,2 
NERRS,ioos:station:NOAA.NERRS:gndblwq:1,2016-07-15T00:45:00Z,30.3571,-88.4629,0.0,31.8,2 
NERRS,ioos:station:NOAA.NERRS:gndblwq:1,2016-07-15T01:45:00Z,30.3571,-88.4629,0.0,31.7,2 
NERRS,ioos:station:NOAA.NERRS:gndblwq:1,2016-07-15T02:45:00Z,30.3571,-88.4629,0.0,31.4,2 
NERRS,ioos:station:NOAA.NERRS:gndblwq:1,2016-07-15T03:45:00Z,30.3571,-88.4629,0.0,31.1,2 
NERRS,ioos:station:NOAA.NERRS:gndblwq:1,2016-07-15T04:45:00Z,30.3571,-88.4629,0.0,30.8,2 
NERRS,ioos:station:NOAA.NERRS:gndblwq:1,2016-07-15T05:45:00Z,30.3571,-88.4629,0.0,30.6,2 
NERRS,ioos:station:NOAA.NERRS:gndblwq:1,2016-07-15T06:45:00Z,30.3571,-88.4629,0.0,30.8,2 
NERRS,ioos:station:NOAA.NERRS:gndblwq:1,2016-07-15T07:45:00Z,30.3571,-88.4629,0.0,30.7,2 
NERRS,ioos:station:NOAA.NERRS:gndblwq:1,2016-07-15T08:45:00Z,30.3571,-88.4629,0.0,30.5,2 
NERRS,ioos:station:NOAA.NERRS:gndblwq:1,2016-07-15T09:45:00Z,30.3571,-88.4629,0.0,30.0,2 
NERRS,ioos:station:NOAA.NERRS:gndblwq:1,2016-07-15T10:45:00Z,30.3571,-88.4629,0.0,29.8,2 
NERRS,ioos:station:NOAA.NERRS:gndblwq:1,2016-07-15T11:45:00Z,30.3571,-88.4629,0.0,29.8,2 
NERRS,ioos:station:NOAA.NERRS:gndblwq:1,2016-07-15T12:45:00Z,30.3571,-88.4629,0.0,29.7,2 
NERRS,ioos:station:NOAA.NERRS:gndblwq:1,2016-07-15T13:45:00Z,30.3571,-88.4629,0.0,30.1,2 
NERRS,ioos:station:NOAA.NERRS:gndblwq:1,2016-07-15T14:45:00Z,30.3571,-88.4629,0.0,30.2,2 
NERRS,ioos:station:NOAA.NERRS:gndblwq:1,2016-07-15T15:45:00Z,30.3571,-88.4629,0.0,30.8,2 
NERRS,ioos:station:NOAA.NERRS:gndblwq:1,2016-07-15T16:45:00Z,30.3571,-88.4629,0.0,30.6,2 
NERRS,ioos:station:NOAA.NERRS:gndblwq:1,2016-07-15T17:45:00Z,30.3571,-88.4629,0.0,31.1,2 
NERRS,ioos:station:NOAA.NERRS:gndblwq:1,2016-07-15T18:45:00Z,30.3571,-88.4629,0.0,31.7,2 
NERRS,ioos:station:NOAA.NERRS:gndblwq:1,2016-07-15T19:45:00Z,30.3571,-88.4629,0.0,32.2,2 
NERRS,ioos:station:NOAA.NERRS:gndblwq:1,2016-07-15T20:45:00Z,30.3571,-88.4629,0.0,32.4,2 
NERRS,ioos:station:NOAA.NERRS:gndblwq:1,2016-07-15T21:45:00Z,30.3571,-88.4629,0.0,32.0,2 
NERRS,ioos:station:NOAA.NERRS:gndblwq:1,2016-07-15T22:45:00Z,30.3571,-88.4629,0.0,31.9,2 
NERRS,ioos:station:NOAA.NERRS:gndblwq:1,2016-07-15T23:45:00Z,30.3571,-88.4629,0.0,31.7,2 
NERRS,ioos:station:NOAA.NERRS:gndblwq:1,2016-07-16T00:45:00Z,30.3571,-88.4629,0.0,31.5,2 
NERRS,ioos:station:NOAA.NERRS:gndblwq:1,2016-07-16T01:45:00Z,30.3571,-88.4629,0.0,31.3,2 
NERRS,ioos:station:NOAA.NERRS:gndblwq:1,2016-07-16T02:45:00Z,30.3571,-88.4629,0.0,31.4,2 
NERRS,ioos:station:NOAA.NERRS:gndblwq:1,2016-07-16T03:45:00Z,30.3571,-88.4629,0.0,31.2,2 
NERRS,ioos:station:NOAA.NERRS:gndblwq:1,2016-07-16T04:45:00Z,30.3571,-88.4629,0.0,31.0,2 
NERRS,ioos:station:NOAA.NERRS:gndblwq:1,2016-07-16T05:45:00Z,30.3571,-88.4629,0.0,30.6,2 
NERRS,ioos:station:NOAA.NERRS:gndblwq:1,2016-07-16T06:45:00Z,30.3571,-88.4629,0.0,30.3,2 
NERRS,ioos:station:NOAA.NERRS:gndblwq:1,2016-07-16T07:45:00Z,30.3571,-88.4629,0.0,30.4,2 
NERRS,ioos:station:NOAA.NERRS:gndblwq:1,2016-07-16T08:45:00Z,30.3571,-88.4629,0.0,30.2,2 
NERRS,ioos:station:NOAA.NERRS:gndblwq:1,2016-07-16T09:45:00Z,30.3571,-88.4629,0.0,29.9,2 
NERRS,ioos:station:NOAA.NERRS:gndblwq:1,2016-07-16T10:45:00Z,30.3571,-88.4629,0.0,29.7,2 
NERRS,ioos:station:NOAA.NERRS:gndblwq:1,2016-07-16T11:45:00Z,30.3571,-88.4629,0.0,29.8,2 
NERRS,ioos:station:NOAA.NERRS:gndblwq:1,2016-07-16T12:45:00Z,30.3571,-88.4629,0.0,29.7,2 
NERRS,ioos:station:NOAA.NERRS:gndblwq:1,2016-07-16T13:45:00Z,30.3571,-88.4629,0.0,29.7,2 
NERRS,ioos:station:NOAA.NERRS:gndblwq:1,2016-07-16T14:45:00Z,30.3571,-88.4629,0.0,29.9,2 
NERRS,ioos:station:NOAA.NERRS:gndblwq:1,2016-07-16T15:45:00Z,30.3571,-88.4629,0.0,30.3,2 
NERRS,ioos:station:NOAA.NERRS:gndblwq:1,2016-07-16T16:45:00Z,30.3571,-88.4629,0.0,30.8,2 
NERRS,ioos:station:NOAA.NERRS:gndblwq:1,2016-07-16T17:45:00Z,30.3571,-88.4629,0.0,31.7,2 
NERRS,ioos:station:NOAA.NERRS:gndblwq:1,2016-07-16T18:45:00Z,30.3571,-88.4629,0.0,32.3,2 
NERRS,ioos:station:NOAA.NERRS:gndblwq:1,2016-07-16T19:45:00Z,30.3571,-88.4629,0.0,32.9,2 
NERRS,ioos:station:NOAA.NERRS:gndblwq:1,2016-07-16T20:45:00Z,30.3571,-88.4629,0.0,32.8,2 
NERRS,ioos:station:NOAA.NERRS:gndblwq:1,2016-07-16T21:45:00Z,30.3571,-88.4629,0.0,33.5,2 
NERRS,ioos:station:NOAA.NERRS:gndblwq:1,2016-07-16T22:45:00Z,30.3571,-88.4629,0.0,33.3,2 
NERRS,ioos:station:NOAA.NERRS:gndblwq:1,2016-07-16T23:45:00Z,30.3571,-88.4629,0.0,32.3,2 
NERRS,ioos:station:NOAA.NERRS:gndblwq:1,2016-07-17T00:45:00Z,30.3571,-88.4629,0.0,32.6,2 
NERRS,ioos:station:NOAA.NERRS:gndblwq:1,2016-07-17T01:45:00Z,30.3571,-88.4629,0.0,32.2,2 
NERRS,ioos:station:NOAA.NERRS:gndblwq:1,2016-07-17T02:45:00Z,30.3571,-88.4629,0.0,32.0,2 
NERRS,ioos:station:NOAA.NERRS:gndblwq:1,2016-07-17T03:45:00Z,30.3571,-88.4629,0.0,31.7,2 
NERRS,ioos:station:NOAA.NERRS:gndblwq:1,2016-07-17T04:45:00Z,30.3571,-88.4629,0.0,31.5,2 
NERRS,ioos:station:NOAA.NERRS:gndblwq:1,2016-07-17T05:45:00Z,30.3571,-88.4629,0.0,31.5,2 
NERRS,ioos:station:NOAA.NERRS:gndblwq:1,2016-07-17T06:45:00Z,30.3571,-88.4629,0.0,31.4,2 
NERRS,ioos:station:NOAA.NERRS:gndblwq:1,2016-07-17T07:45:00Z,30.3571,-88.4629,0.0,31.3,2 
NERRS,ioos:station:NOAA.NERRS:gndblwq:1,2016-07-17T08:45:00Z,30.3571,-88.4629,0.0,31.0,2 
NERRS,ioos:station:NOAA.NERRS:gndblwq:1,2016-07-17T09:45:00Z,30.3571,-88.4629,0.0,30.7,2 
NERRS,ioos:station:NOAA.NERRS:gndblwq:1,2016-07-17T10:45:00Z,30.3571,-88.4629,0.0,30.5,2 
NERRS,ioos:station:NOAA.NERRS:gndblwq:1,2016-07-17T11:45:00Z,30.3571,-88.4629,0.0,30.4,2 
NERRS,ioos:station:NOAA.NERRS:gndblwq:1,2016-07-17T12:45:00Z,30.3571,-88.4629,0.0,30.6,2 
NERRS,ioos:station:NOAA.NERRS:gndblwq:1,2016-07-17T13:45:00Z,30.3571,-88.4629,0.0,30.7,2 
NERRS,ioos:station:NOAA.NERRS:gndblwq:1,2016-07-17T14:45:00Z,30.3571,-88.4629,0.0,30.8,2 
NERRS,ioos:station:NOAA.NERRS:gndblwq:1,2016-07-17T15:45:00Z,30.3571,-88.4629,0.0,30.8,2 
NERRS,ioos:station:NOAA.NERRS:gndblwq:1,2016-07-17T16:45:00Z,30.3571,-88.4629,0.0,31.4,2 
NERRS,ioos:station:NOAA.NERRS:gndblwq:1,2016-07-17T17:45:00Z,30.3571,-88.4629,0.0,32.5,2 
NERRS,ioos:station:NOAA.NERRS:gndblwq:1,2016-07-17T18:45:00Z,30.3571,-88.4629,0.0,32.9,2 
NERRS,ioos:station:NOAA.NERRS:gndblwq:1,2016-07-17T19:45:00Z,30.3571,-88.4629,0.0,32.6,2 
NERRS,ioos:station:NOAA.NERRS:gndblwq:1,2016-07-17T20:45:00Z,30.3571,-88.4629,0.0,32.8,2 
NERRS,ioos:station:NOAA.NERRS:gndblwq:1,2016-07-17T21:45:00Z,30.3571,-88.4629,0.0,32.8,2 
NERRS,ioos:station:NOAA.NERRS:gndblwq:1,2016-07-17T22:45:00Z,30.3571,-88.4629,0.0,32.5,2 
NERRS,ioos:station:NOAA.NERRS:gndblwq:1,2016-07-17T23:45:00Z,30.3571,-88.4629,0.0,32.3,2 
NERRS,ioos:station:NOAA.NERRS:gndblwq:1,2016-07-18T00:45:00Z,30.3571,-88.4629,0.0,32.0,2 
NERRS,ioos:station:NOAA.NERRS:gndblwq:1,2016-07-18T01:45:00Z,30.3571,-88.4629,0.0,32.2,2 
NERRS,ioos:station:NOAA.NERRS:gndblwq:1,2016-07-18T02:45:00Z,30.3571,-88.4629,0.0,31.7,2 
NERRS,ioos:station:NOAA.NERRS:gndblwq:1,2016-07-18T03:45:00Z,30.3571,-88.4629,0.0,31.6,2 
NERRS,ioos:station:NOAA.NERRS:gndblwq:1,2016-07-18T04:45:00Z,30.3571,-88.4629,0.0,31.4,2 
NERRS,ioos:station:NOAA.NERRS:gndblwq:1,2016-07-18T05:45:00Z,30.3571,-88.4629,0.0,31.3,2 
NERRS,ioos:station:NOAA.NERRS:gndblwq:1,2016-07-18T06:45:00Z,30.3571,-88.4629,0.0,30.8,2 
NERRS,ioos:station:NOAA.NERRS:gndblwq:1,2016-07-18T07:45:00Z,30.3571,-88.4629,0.0,30.8,2 
NERRS,ioos:station:NOAA.NERRS:gndblwq:1,2016-07-18T08:45:00Z,30.3571,-88.4629,0.0,30.8,2 
NERRS,ioos:station:NOAA.NERRS:gndblwq:1,2016-07-18T09:45:00Z,30.3571,-88.4629,0.0,30.7,2 
NERRS,ioos:station:NOAA.NERRS:gndblwq:1,2016-07-18T10:45:00Z,30.3571,-88.4629,0.0,30.6,2 
NERRS,ioos:station:NOAA.NERRS:gndblwq:1,2016-07-18T11:45:00Z,30.3571,-88.4629,0.0,30.4,2 
NERRS,ioos:station:NOAA.NERRS:gndblwq:1,2016-07-18T12:45:00Z,30.3571,-88.4629,0.0,30.5,2 
NERRS,ioos:station:NOAA.NERRS:gndblwq:1,2016-07-18T13:45:00Z,30.3571,-88.4629,0.0,30.6,2 
NERRS,ioos:station:NOAA.NERRS:gndblwq:1,2016-07-18T14:45:00Z,30.3571,-88.4629,0.0,30.8,2 
NERRS,ioos:station:NOAA.NERRS:gndblwq:1,2016-07-18T15:45:00Z,30.3571,-88.4629,0.0,31.2,2 
NERRS,ioos:station:NOAA.NERRS:gndblwq:1,2016-07-18T16:45:00Z,30.3571,-88.4629,0.0,31.3,2 
NERRS,ioos:station:NOAA.NERRS:gndblwq:1,2016-07-18T17:45:00Z,30.3571,-88.4629,0.0,31.4,2 
NERRS,ioos:station:NOAA.NERRS:gndblwq:1,2016-07-18T18:45:00Z,30.3571,-88.4629,0.0,31.8,2 
NERRS,ioos:station:NOAA.NERRS:gndblwq:1,2016-07-18T19:45:00Z,30.3571,-88.4629,0.0,32.2,2 
NERRS,ioos:station:NOAA.NERRS:gndblwq:1,2016-07-18T20:45:00Z,30.3571,-88.4629,0.0,32.5,2 
NERRS,ioos:station:NOAA.NERRS:gndblwq:1,2016-07-18T21:45:00Z,30.3571,-88.4629,0.0,32.8,2 
NERRS,ioos:station:NOAA.NERRS:gndblwq:1,2016-07-18T22:45:00Z,30.3571,-88.4629,0.0,32.7,2 
NERRS,ioos:station:NOAA.NERRS:gndblwq:1,2016-07-18T23:45:00Z,30.3571,-88.4629,0.0,33.0,2 
NERRS,ioos:station:NOAA.NERRS:gndblwq:1,2016-07-19T00:45:00Z,30.3571,-88.4629,0.0,32.1,2 
NERRS,ioos:station:NOAA.NERRS:gndblwq:1,2016-07-19T01:45:00Z,30.3571,-88.4629,0.0,32.4,2 
NERRS,ioos:station:NOAA.NERRS:gndblwq:1,2016-07-19T02:45:00Z,30.3571,-88.4629,0.0,32.0,2 
NERRS,ioos:station:NOAA.NERRS:gndblwq:1,2016-07-19T03:45:00Z,30.3571,-88.4629,0.0,31.5,2 
NERRS,ioos:station:NOAA.NERRS:gndblwq:1,2016-07-19T04:45:00Z,30.3571,-88.4629,0.0,31.3,2 
NERRS,ioos:station:NOAA.NERRS:gndblwq:1,2016-07-19T05:45:00Z,30.3571,-88.4629,0.0,31.3,2 
NERRS,ioos:station:NOAA.NERRS:gndblwq:1,2016-07-19T06:45:00Z,30.3571,-88.4629,0.0,31.3,2 
NERRS,ioos:station:NOAA.NERRS:gndblwq:1,2016-07-19T07:45:00Z,30.3571,-88.4629,0.0,31.2,2 
NERRS,ioos:station:NOAA.NERRS:gndblwq:1,2016-07-19T08:45:00Z,30.3571,-88.4629,0.0,30.8,2 
NERRS,ioos:station:NOAA.NERRS:gndblwq:1,2016-07-19T09:45:00Z,30.3571,-88.4629,0.0,30.7,2 
NERRS,ioos:station:NOAA.NERRS:gndblwq:1,2016-07-19T10:45:00Z,30.3571,-88.4629,0.0,30.5,2 
NERRS,ioos:station:NOAA.NERRS:gndblwq:1,2016-07-19T11:45:00Z,30.3571,-88.4629,0.0,30.5,2 
NERRS,ioos:station:NOAA.NERRS:gndblwq:1,2016-07-19T12:45:00Z,30.3571,-88.4629,0.0,30.6,2 
NERRS,ioos:station:NOAA.NERRS:gndblwq:1,2016-07-19T13:45:00Z,30.3571,-88.4629,0.0,30.6,2 
NERRS,ioos:station:NOAA.NERRS:gndblwq:1,2016-07-19T14:45:00Z,30.3571,-88.4629,0.0,30.7,2 
NERRS,ioos:station:NOAA.NERRS:gndblwq:1,2016-07-19T15:45:00Z,30.3571,-88.4629,0.0,31.2,2 
NERRS,ioos:station:NOAA.NERRS:gndblwq:1,2016-07-19T16:45:00Z,30.3571,-88.4629,0.0,31.8,2 
NERRS,ioos:station:NOAA.NERRS:gndblwq:1,2016-07-19T17:45:00Z,30.3571,-88.4629,0.0,32.2,2 
NERRS,ioos:station:NOAA.NERRS:gndblwq:1,2016-07-19T18:45:00Z,30.3571,-88.4629,0.0,32.7,2 
NERRS,ioos:station:NOAA.NERRS:gndblwq:1,2016-07-19T19:45:00Z,30.3571,-88.4629,0.0,33.5,2 
NERRS,ioos:station:NOAA.NERRS:gndblwq:1,2016-07-19T20:45:00Z,30.3571,-88.4629,0.0,33.8,2 
NERRS,ioos:station:NOAA.NERRS:gndblwq:1,2016-07-19T21:45:00Z,30.3571,-88.4629,0.0,34.6,2 
NERRS,ioos:station:NOAA.NERRS:gndblwq:1,2016-07-19T22:45:00Z,30.3571,-88.4629,0.0,34.8,2 
NERRS,ioos:station:NOAA.NERRS:gndblwq:1,2016-07-19T23:45:00Z,30.3571,-88.4629,0.0,34.5,2 
NERRS,ioos:station:NOAA.NERRS:gndblwq:1,2016-07-20T00:45:00Z,30.3571,-88.4629,0.0,33.9,2 
NERRS,ioos:station:NOAA.NERRS:gndblwq:1,2016-07-20T01:45:00Z,30.3571,-88.4629,0.0,33.6,2 
NERRS,ioos:station:NOAA.NERRS:gndblwq:1,2016-07-20T02:45:00Z,30.3571,-88.4629,0.0,33.5,2 
NERRS,ioos:station:NOAA.NERRS:gndblwq:1,2016-07-20T03:45:00Z,30.3571,-88.4629,0.0,33.2,2 
NERRS,ioos:station:NOAA.NERRS:gndblwq:1,2016-07-20T04:45:00Z,30.3571,-88.4629,0.0,33.1,2 
NERRS,ioos:station:NOAA.NERRS:gndblwq:1,2016-07-20T05:45:00Z,30.3571,-88.4629,0.0,33.1,2 
NERRS,ioos:station:NOAA.NERRS:gndblwq:1,2016-07-20T06:45:00Z,30.3571,-88.4629,0.0,32.3,2 
NERRS,ioos:station:NOAA.NERRS:gndblwq:1,2016-07-20T07:45:00Z,30.3571,-88.4629,0.0,32.3,2 
NERRS,ioos:station:NOAA.NERRS:gndblwq:1,2016-07-20T08:45:00Z,30.3571,-88.4629,0.0,32.5,2 
NERRS,ioos:station:NOAA.NERRS:gndblwq:1,2016-07-20T09:45:00Z,30.3571,-88.4629,0.0,32.6,2 
NERRS,ioos:station:NOAA.NERRS:gndblwq:1,2016-07-20T10:45:00Z,30.3571,-88.4629,0.0,32.3,2 
NERRS,ioos:station:NOAA.NERRS:gndblwq:1,2016-07-20T11:45:00Z,30.3571,-88.4629,0.0,31.9,2 
NERRS,ioos:station:NOAA.NERRS:gndblwq:1,2016-07-20T12:45:00Z,30.3571,-88.4629,0.0,31.8,2 
NERRS,ioos:station:NOAA.NERRS:gndblwq:1,2016-07-20T13:45:00Z,30.3571,-88.4629,0.0,31.6,2 
NERRS,ioos:station:NOAA.NERRS:gndblwq:1,2016-07-20T14:45:00Z,30.3571,-88.4629,0.0,31.7,2 
NERRS,ioos:station:NOAA.NERRS:gndblwq:1,2016-07-20T15:45:00Z,30.3571,-88.4629,0.0,32.0,2 
NERRS,ioos:station:NOAA.NERRS:gndblwq:1,2016-07-20T16:45:00Z,30.3571,-88.4629,0.0,32.8,2 
NERRS,ioos:station:NOAA.NERRS:gndblwq:1,2016-07-20T17:45:00Z,30.3571,-88.4629,0.0,32.4,2 
NERRS,ioos:station:NOAA.NERRS:gndblwq:1,2016-07-20T18:45:00Z,30.3571,-88.4629,0.0,33.2,2 
NERRS,ioos:station:NOAA.NERRS:gndblwq:1,2016-07-20T19:45:00Z,30.3571,-88.4629,0.0,33.0,2 
NERRS,ioos:station:NOAA.NERRS:gndblwq:1,2016-07-20T20:45:00Z,30.3571,-88.4629,0.0,32.6,2 
NERRS,ioos:station:NOAA.NERRS:gndblwq:1,2016-07-20T21:45:00Z,30.3571,-88.4629,0.0,32.5,2 
NERRS,ioos:station:NOAA.NERRS:gndblwq:1,2016-07-20T22:45:00Z,30.3571,-88.4629,0.0,32.2,2 
NERRS,ioos:station:NOAA.NERRS:gndblwq:1,2016-07-20T23:45:00Z,30.3571,-88.4629,0.0,32.2,2 
NERRS,ioos:station:NOAA.NERRS:gndblwq:1,2016-07-21T00:45:00Z,30.3571,-88.4629,0.0,31.7,2 
NERRS,ioos:station:NOAA.NERRS:gndblwq:1,2016-07-21T01:45:00Z,30.3571,-88.4629,0.0,31.0,2 
NERRS,ioos:station:NOAA.NERRS:gndblwq:1,2016-07-21T02:45:00Z,30.3571,-88.4629,0.0,31.5,2 
NERRS,ioos:station:NOAA.NERRS:gndblwq:1,2016-07-21T03:45:00Z,30.3571,-88.4629,0.0,31.4,2 
NERRS,ioos:station:NOAA.NERRS:gndblwq:1,2016-07-21T04:45:00Z,30.3571,-88.4629,0.0,31.3,2 
NERRS,ioos:station:NOAA.NERRS:gndblwq:1,2016-07-21T05:45:00Z,30.3571,-88.4629,0.0,30.9,2 
NERRS,ioos:station:NOAA.NERRS:gndblwq:1,2016-07-21T06:45:00Z,30.3571,-88.4629,0.0,31.1,2 
NERRS,ioos:station:NOAA.NERRS:gndblwq:1,2016-07-21T07:45:00Z,30.3571,-88.4629,0.0,31.4,2 
NERRS,ioos:station:NOAA.NERRS:gndblwq:1,2016-07-21T08:45:00Z,30.3571,-88.4629,0.0,30.8,2 
NERRS,ioos:station:NOAA.NERRS:gndblwq:1,2016-07-21T09:45:00Z,30.3571,-88.4629,0.0,31.1,2 
NERRS,ioos:station:NOAA.NERRS:gndblwq:1,2016-07-21T10:45:00Z,30.3571,-88.4629,0.0,31.0,2 
NERRS,ioos:station:NOAA.NERRS:gndblwq:1,2016-07-21T11:45:00Z,30.3571,-88.4629,0.0,31.0,2 
NERRS,ioos:station:NOAA.NERRS:gndblwq:1,2016-07-21T12:45:00Z,30.3571,-88.4629,0.0,31.0,2 
NERRS,ioos:station:NOAA.NERRS:gndblwq:1,2016-07-21T13:45:00Z,30.3571,-88.4629,0.0,30.8,2 
NERRS,ioos:station:NOAA.NERRS:gndblwq:1,2016-07-21T14:45:00Z,30.3571,-88.4629,0.0,31.0,2 
NERRS,ioos:station:NOAA.NERRS:gndblwq:1,2016-07-21T15:45:00Z,30.3571,-88.4629,0.0,31.2,2 
NERRS,ioos:station:NOAA.NERRS:gndblwq:1,2016-07-21T16:45:00Z,30.3571,-88.4629,0.0,32.0,2 
NERRS,ioos:station:NOAA.NERRS:gndblwq:1,2016-07-21T17:45:00Z,30.3571,-88.4629,0.0,32.2,2 
NERRS,ioos:station:NOAA.NERRS:gndblwq:1,2016-07-21T18:45:00Z,30.3571,-88.4629,0.0,32.3,2 
NERRS,ioos:station:NOAA.NERRS:gndblwq:1,2016-07-21T19:45:00Z,30.3571,-88.4629,0.0,32.2,2 
NERRS,ioos:station:NOAA.NERRS:gndblwq:1,2016-07-21T20:45:00Z,30.3571,-88.4629,0.0,32.0,2 
NERRS,ioos:station:NOAA.NERRS:gndblwq:1,2016-07-21T21:45:00Z,30.3571,-88.4629,0.0,31.8,2 
NERRS,ioos:station:NOAA.NERRS:gndblwq:1,2016-07-21T22:45:00Z,30.3571,-88.4629,0.0,31.7,2 
NERRS,ioos:station:NOAA.NERRS:gndblwq:1,2016-07-21T23:45:00Z,30.3571,-88.4629,0.0,31.6,2 
NERRS,ioos:station:NOAA.NERRS:gndblwq:1,2016-07-22T00:45:00Z,30.3571,-88.4629,0.0,31.4,2 
NERRS,ioos:station:NOAA.NERRS:gndblwq:1,2016-07-22T01:45:00Z,30.3571,-88.4629,0.0,31.3,2 
NERRS,ioos:station:NOAA.NERRS:gndblwq:1,2016-07-22T02:45:00Z,30.3571,-88.4629,0.0,31.0,2 
NERRS,ioos:station:NOAA.NERRS:gndblwq:1,2016-07-22T03:45:00Z,30.3571,-88.4629,0.0,30.7,2 
NERRS,ioos:station:NOAA.NERRS:gndblwq:1,2016-07-22T04:45:00Z,30.3571,-88.4629,0.0,30.6,2 
NERRS,ioos:station:NOAA.NERRS:gndblwq:1,2016-07-22T05:45:00Z,30.3571,-88.4629,0.0,30.5,2 
NERRS,ioos:station:NOAA.NERRS:gndblwq:1,2016-07-22T06:45:00Z,30.3571,-88.4629,0.0,30.5,2 
NERRS,ioos:station:NOAA.NERRS:gndblwq:1,2016-07-22T07:45:00Z,30.3571,-88.4629,0.0,30.6,2 
NERRS,ioos:station:NOAA.NERRS:gndblwq:1,2016-07-22T08:45:00Z,30.3571,-88.4629,0.0,30.5,2 
NERRS,ioos:station:NOAA.NERRS:gndblwq:1,2016-07-22T09:45:00Z,30.3571,-88.4629,0.0,30.9,2 
NERRS,ioos:station:NOAA.NERRS:gndblwq:1,2016-07-22T10:45:00Z,30.3571,-88.4629,0.0,30.8,2 
NERRS,ioos:station:NOAA.NERRS:gndblwq:1,2016-07-22T11:45:00Z,30.3571,-88.4629,0.0,30.9,2 
NERRS,ioos:station:NOAA.NERRS:gndblwq:1,2016-07-22T12:45:00Z,30.3571,-88.4629,0.0,30.8,2 
NERRS,ioos:station:NOAA.NERRS:gndblwq:1,2016-07-22T13:45:00Z,30.3571,-88.4629,0.0,30.5,2 
NERRS,ioos:station:NOAA.NERRS:gndblwq:1,2016-07-22T14:45:00Z,30.3571,-88.4629,0.0,30.4,2 
NERRS,ioos:station:NOAA.NERRS:gndblwq:1,2016-07-22T15:45:00Z,30.3571,-88.4629,0.0,30.3,2 
NERRS,ioos:station:NOAA.NERRS:gndblwq:1,2016-07-22T16:45:00Z,30.3571,-88.4629,0.0,30.7,2 
NERRS,ioos:station:NOAA.NERRS:gndblwq:1,2016-07-22T17:45:00Z,30.3571,-88.4629,0.0,30.9,2 
NERRS,ioos:station:NOAA.NERRS:gndblwq:1,2016-07-22T18:45:00Z,30.3571,-88.4629,0.0,31.5,2 
NERRS,ioos:station:NOAA.NERRS:gndblwq:1,2016-07-22T19:45:00Z,30.3571,-88.4629,0.0,31.5,2 
NERRS,ioos:station:NOAA.NERRS:gndblwq:1,2016-07-22T20:45:00Z,30.3571,-88.4629,0.0,31.6,2 
NERRS,ioos:station:NOAA.NERRS:gndblwq:1,2016-07-22T21:45:00Z,30.3571,-88.4629,0.0,31.7,2 
NERRS,ioos:station:NOAA.NERRS:gndblwq:1,2016-07-22T22:45:00Z,30.3571,-88.4629,0.0,31.8,2 
NERRS,ioos:station:NOAA.NERRS:gndblwq:1,2016-07-22T23:45:00Z,30.3571,-88.4629,0.0,31.8,2 
NERRS,ioos:station:NOAA.NERRS:gndblwq:1,2016-07-23T00:45:00Z,30.3571,-88.4629,0.0,31.0,2 
NERRS,ioos:station:NOAA.NERRS:gndblwq:1,2016-07-23T01:45:00Z,30.3571,-88.4629,0.0,30.8,2 
NERRS,ioos:station:NOAA.NERRS:gndblwq:1,2016-07-23T02:45:00Z,30.3571,-88.4629,0.0,30.7,2 
NERRS,ioos:station:NOAA.NERRS:gndblwq:1,2016-07-23T03:45:00Z,30.3571,-88.4629,0.0,30.5,2 
NERRS,ioos:station:NOAA.NERRS:gndblwq:1,2016-07-23T04:45:00Z,30.3571,-88.4629,0.0,30.3,2 
NERRS,ioos:station:NOAA.NERRS:gndblwq:1,2016-07-23T05:45:00Z,30.3571,-88.4629,0.0,30.6,2 
NERRS,ioos:station:NOAA.NERRS:gndblwq:1,2016-07-23T06:45:00Z,30.3571,-88.4629,0.0,30.1,2 
NERRS,ioos:station:NOAA.NERRS:gndblwq:1,2016-07-23T07:45:00Z,30.3571,-88.4629,0.0,30.5,2 
NERRS,ioos:station:NOAA.NERRS:gndblwq:1,2016-07-23T08:45:00Z,30.3571,-88.4629,0.0,30.1,2 
NERRS,ioos:station:NOAA.NERRS:gndblwq:1,2016-07-23T09:45:00Z,30.3571,-88.4629,0.0,29.9,2 
NERRS,ioos:station:NOAA.NERRS:gndblwq:1,2016-07-23T10:45:00Z,30.3571,-88.4629,0.0,29.9,2 
NERRS,ioos:station:NOAA.NERRS:gndblwq:1,2016-07-23T11:45:00Z,30.3571,-88.4629,0.0,29.9,2 
NERRS,ioos:station:NOAA.NERRS:gndblwq:1,2016-07-23T12:45:00Z,30.3571,-88.4629,0.0,30.2,2 
NERRS,ioos:station:NOAA.NERRS:gndblwq:1,2016-07-23T13:45:00Z,30.3571,-88.4629,0.0,30.6,2 
NERRS,ioos:station:NOAA.NERRS:gndblwq:1,2016-07-23T14:45:00Z,30.3571,-88.4629,0.0,30.7,2 
NERRS,ioos:station:NOAA.NERRS:gndblwq:1,2016-07-23T15:45:00Z,30.3571,-88.4629,0.0,30.4,2 
NERRS,ioos:station:NOAA.NERRS:gndblwq:1,2016-07-23T16:45:00Z,30.3571,-88.4629,0.0,30.6,2 
NERRS,ioos:station:NOAA.NERRS:gndblwq:1,2016-07-23T17:45:00Z,30.3571,-88.4629,0.0,31.0,2 
NERRS,ioos:station:NOAA.NERRS:gndblwq:1,2016-07-23T18:45:00Z,30.3571,-88.4629,0.0,32.1,2 
NERRS,ioos:station:NOAA.NERRS:gndblwq:1,2016-07-23T19:45:00Z,30.3571,-88.4629,0.0,32.3,2 
NERRS,ioos:station:NOAA.NERRS:gndblwq:1,2016-07-23T20:45:00Z,30.3571,-88.4629,0.0,32.9,2 
NERRS,ioos:station:NOAA.NERRS:gndblwq:1,2016-07-23T21:45:00Z,30.3571,-88.4629,0.0,32.7,2 
NERRS,ioos:station:NOAA.NERRS:gndblwq:1,2016-07-23T22:45:00Z,30.3571,-88.4629,0.0,32.8,2 
NERRS,ioos:station:NOAA.NERRS:gndblwq:1,2016-07-23T23:45:00Z,30.3571,-88.4629,0.0,32.2,2 
NERRS,ioos:station:NOAA.NERRS:gndblwq:1,2016-07-24T00:45:00Z,30.3571,-88.4629,0.0,32.1,2 
NERRS,ioos:station:NOAA.NERRS:gndblwq:1,2016-07-24T01:45:00Z,30.3571,-88.4629,0.0,31.8,2 
NERRS,ioos:station:NOAA.NERRS:gndblwq:1,2016-07-24T02:45:00Z,30.3571,-88.4629,0.0,31.8,2 
NERRS,ioos:station:NOAA.NERRS:gndblwq:1,2016-07-24T03:45:00Z,30.3571,-88.4629,0.0,31.2,2 
NERRS,ioos:station:NOAA.NERRS:gndblwq:1,2016-07-24T04:45:00Z,30.3571,-88.4629,0.0,31.3,2 
NERRS,ioos:station:NOAA.NERRS:gndblwq:1,2016-07-24T05:45:00Z,30.3571,-88.4629,0.0,31.2,2 
NERRS,ioos:station:NOAA.NERRS:gndblwq:1,2016-07-24T06:45:00Z,30.3571,-88.4629,0.0,31.1,2 
NERRS,ioos:station:NOAA.NERRS:gndblwq:1,2016-07-24T07:45:00Z,30.3571,-88.4629,0.0,31.1,2 
NERRS,ioos:station:NOAA.NERRS:gndblwq:1,2016-07-24T08:45:00Z,30.3571,-88.4629,0.0,30.8,2 